Syracuse, NY

12:25 AM EST on January 17, 2018 (GMT -0500)
Syracuse Hancock International

Weather History for KSYR - October, 2013

Change the Weather History Date:

Thursday, October 10, 2013

  Actual Average Record
Temperature  
Mean Temperature 52 °F 52 °F  
Max Temperature 64 °F 62 °F 85 °F (1949)
Min Temperature 40 °F 43 °F 27 °F (1986)
Degree Days  
Heating Degree Days 13 13  
Month to date heating degree days 49 112  
Since 1 July heating degree days 227 279  
Cooling Degree Days 0 0  
Month to date cooling degree days 1 0  
Year to date cooling degree days 712 565  
Growing Degree Days 2 (Base 50)    
Moisture  
Dew Point 43 °F    
Average Humidity 71    
Maximum Humidity 93    
Minimum Humidity 48    
Precipitation  
Precipitation 0.00 in 0.12 in 1.71 in (1950)
Month to date precipitation 1.94 1.15  
Year to date precipitation 31.72 29.43  
Snow  
Snow 0.00 in 0.00 in 0.30 in (1964)
Month to date snowfall 0.0 0.0  
Since 1 July snowfall 0.0 0.0  
Since 1 September snowfall 0.0 0.0  
Snow Depth 0.00 in    
Sea Level Pressure  
Sea Level Pressure 30.25 in    
Wind  
Wind Speed 1 mph (East)    
Max Wind Speed 7 mph    
Max Gust Speed 9 mph    
Visibility 10 miles    
Events      
T = Trace of Precipitation, MM = Missing Value Source: NWS Daily Summary

Daily Weather History Graph

Daily Weather History Graph

Search for Another Location

Airport or City:

Trip Planner

Search our weather history database for the weather conditions in past years. The results will help you decide how hot, cold, wet, or windy it might be!

Date:

Astronomy

Oct. 10, 2013 Rise Set
Actual Time 7:12 AM EDT 6:29 PM EDT
Civil Twilight 6:43 AM EDT 6:58 PM EDT
Nautical Twilight 6:10 AM EDT 7:30 PM EDT
Astronomical Twilight 5:37 AM EDT 8:03 PM EDT
Moon 1:07 PM EDT (10/10) 10:59 PM EDT (10/10)
Length of Visible Light 12h 14m
Length of Day
11h 17m
Waxing Crescent, 35% of the Moon is Illuminated
Oct 10
Waxing Crescent
Oct 11
First Quarter
Oct 18
Full
Oct 26
Last Quarter
Nov 3
New

Hourly Weather History & Observations

Time (EDT) Temp. Windchill Dew Point Humidity Pressure Visibility Wind Dir Wind Speed Gust Speed Precip Events Conditions
12:54 AM 46.0 °F 43.9 °F 42.1 °F 86% 30.30 in 10.0 mi East 4.6 mph - N/A   Overcast
1:54 AM 45.0 °F 42.6 °F 41.0 °F 86% 30.29 in 10.0 mi East 4.6 mph - N/A   Overcast
2:54 AM 44.1 °F 41.5 °F 41.0 °F 89% 30.29 in 10.0 mi East 4.6 mph - N/A   Mostly Cloudy
3:54 AM 44.1 °F 42.5 °F 39.9 °F 85% 30.28 in 10.0 mi East 3.5 mph - N/A   Mostly Cloudy
4:54 AM 42.1 °F 40.2 °F 39.0 °F 89% 30.27 in 10.0 mi ESE 3.5 mph - N/A   Mostly Cloudy
5:54 AM 42.1 °F - 39.0 °F 89% 30.27 in 10.0 mi Calm Calm - N/A   Mostly Cloudy
6:54 AM 41.0 °F - 39.0 °F 93% 30.29 in 10.0 mi Calm Calm - N/A   Mostly Cloudy
7:54 AM 42.1 °F - 39.0 °F 89% 30.30 in 10.0 mi Calm Calm - N/A   Mostly Cloudy
8:54 AM 45.0 °F - 41.0 °F 86% 30.30 in 10.0 mi Calm Calm - N/A   Overcast
9:54 AM 46.9 °F - 43.0 °F 86% 30.31 in 10.0 mi SE 3.5 mph - N/A   Overcast
10:54 AM 52.0 °F - 45.0 °F 77% 30.30 in 10.0 mi Calm Calm - N/A   Overcast
11:54 AM 55.0 °F - 45.0 °F 69% 30.29 in 10.0 mi Calm Calm - N/A   Overcast
12:54 PM 57.9 °F - 45.0 °F 62% 30.26 in 10.0 mi Calm Calm - N/A   Overcast
1:54 PM 60.1 °F - 45.0 °F 57% 30.23 in 10.0 mi Calm Calm - N/A   Overcast
2:54 PM 63.0 °F - 46.0 °F 54% 30.21 in 10.0 mi ENE 3.5 mph - N/A   Overcast
3:54 PM 64.0 °F - 44.1 °F 48% 30.20 in 10.0 mi East 5.8 mph - N/A   Mostly Cloudy
4:54 PM 63.0 °F - 43.0 °F 48% 30.19 in 10.0 mi East 3.5 mph - N/A   Mostly Cloudy
5:54 PM 59.0 °F - 46.9 °F 64% 30.19 in 10.0 mi Calm Calm - N/A   Mostly Cloudy
6:54 PM 55.9 °F - 46.0 °F 69% 30.19 in 10.0 mi Calm Calm - N/A   Mostly Cloudy
7:54 PM 53.1 °F - 46.0 °F 77% 30.18 in 10.0 mi Calm Calm - N/A   Mostly Cloudy
8:54 PM 51.1 °F - 46.0 °F 83% 30.18 in 10.0 mi Calm Calm - N/A   Mostly Cloudy
9:54 PM 50.0 °F - 46.0 °F 86% 30.19 in 10.0 mi Calm Calm - N/A   Scattered Clouds
10:54 PM 46.9 °F - 44.1 °F 90% 30.18 in 10.0 mi Calm Calm - N/A   Partly Cloudy
11:54 PM 48.0 °F - 44.1 °F 86% 30.17 in 10.0 mi Calm Calm - N/A   Mostly Cloudy